Regional Weather Roundup
Issued by NWS

Home | Current Version | Previous Version | Graphics & Text | Print | Product List | Glossary On
Versions: 1 2 3 4 5 6 7 8 9 10 11 12 13 14 15 16 17 18 19 20 21 22 23 24 25 26 27 28 29 30 31 32 33 34 35 36 37 38 39 40 41 42 43 44 45 46 47 48 49 50
000
ASUS43 KMKX 011021
RWRWI

WISCONSIN REGIONAL WEATHER ROUNDUP
NATIONAL WEATHER SERVICE MILWAUKEE/SULLIVAN WI
500 AM CDT FRI AUG 01 2014

NOTE: "FAIR" INDICATES FEW OR NO CLOUDS BELOW 12,000 FEET WITH NO
SIGNIFICANT WEATHER AND/OR OBSTRUCTIONS TO VISIBILITY.

WIZ001-002-006>008-014>016-023>028-011100-
NORTHWEST WISCONSIN

CITY           SKY/WX    TMP DP  RH WIND       PRES   REMARKS
SUPERIOR ARPT  CLEAR     51  51 100 CALM      30.01S FOG
ASHLAND        CLEAR     51  50  96 CALM      30.02R
HAYWARD        FOG       54  54 100 NE5       30.03R VSB 1/4
SIREN          CLOUDY    55  54  97 CALM      30.03R FOG
RICE LAKE      MOCLDY    57  56  95 CALM      30.04R FOG
LADYSMITH      FOG       56  55  97 CALM      30.04S VSB 1/2
EAU CLAIRE     PTCLDY    62  61  96 CALM      30.01S
MENOMONIE      SUNNY     60  59  94 CALM      30.03R
NEW RICHMOND   CLEAR     60  58  94 SW3       30.03S
OSCEOLA        CLEAR     57  57 100 CALM      30.05R
$$

WIZ003>005-009-010-017-018-011100-
NORTH CENTRAL WISCONSIN

CITY           SKY/WX    TMP DP  RH WIND       PRES   REMARKS
WOODRUFF       CLEAR     52  45  76 CALM      30.03S
RHINELANDER    FOG       50  50 100 W3        30.04R VSB 1/4
EAGLE RIVER    PTCLDY    48  48 100 CALM      30.03R FOG
LAND O LAKES   FOG       45  45 100 CALM      30.04R VSB 1/2
PHILLIPS       FOG       52  52 100 CALM      30.03R VSB 1
TOMAHAWK       MOCLDY    47  46  97 CALM      30.04S FOG
MEDFORD        FOG       54  54 100 CALM      30.03S VSB 1/2
MERRILL        FOG       51  51 100 CALM      30.03S VSB 1/4
$$

WIZ029-030-035-036-043>047-011100-
CENTRAL WISCONSIN

CITY           SKY/WX    TMP DP  RH WIND       PRES   REMARKS
WAUSAU         CLEAR     58  56  93 CALM      30.01S FOG
MOSINEE        FOG       54  54 100 CALM      30.04R VSB 1/4
MARSHFIELD     PTCLDY    61  57  87 CALM      30.02S
STEVENS POINT  PTCLDY    54  54  99 CALM      30.03S FOG
WAUPACA        CLEAR     58  56  94 CALM      30.02S
WAUTOMA        PTCLDY    56  55  96 CALM      30.03S
WISC RAPIDS    PTCLDY    58  57  97 CALM      30.03F
CAMP DOUGLAS   PTCLDY    55  55 100 SW3       30.03S
$$

WIZ011>013-019>022-031-037>040-048>050-011100-
NORTHEAST WISCONSIN

CITY           SKY/WX    TMP DP  RH WIND       PRES   REMARKS
ANTIGO         FOG       51  51 100 CALM      30.04S VSB 1/2
STURGEON BAY   CLEAR     57  54  88 CALM      30.01S
GREEN BAY      CLEAR     57  56  96 CALM      30.01S FOG
MANITOWOC      CLEAR     59  57  94 CALM      30.02R FOG
APPLETON       CLEAR     61  57  88 W8        30.02S
CLINTONVILLE   PTCLDY    54  52  94 CALM      30.01S FOG
OSHKOSH        CLEAR     62  59  90 SW3       30.02R
$$

WIZ032>034-041-042-053>061-011100-
SOUTHWEST WISCONSIN

CITY           SKY/WX    TMP DP  RH WIND       PRES   REMARKS
LA CROSSE      CLEAR     64  61  90 S6        30.03S
SPARTA         PTCLDY    54  52  95 CALM      30.05R
VIROQUA        FAIR      60  58  92 SW5       30.06S
BOSCOBEL       FOG       56  55  97 CALM      30.06R VSB 1/4
PRAIRIE DU CHI PTCLDY    57  55  93 CALM      30.05S
PLATTEVILLE    FAIR      59  57  91 CALM      30.07S
$$

WIZ056-057-062-063-064-067-068-011100-
SOUTH CENTRAL WISCONSIN

CITY           SKY/WX    TMP DP  RH WIND       PRES   REMARKS
BARABOO/DELLS  CLEAR     58  55  87 SW3       30.04S
LONE ROCK      FOG       59  55  87 CALM      30.05S VSB 1/4
WATERTOWN      CLEAR     56  56  99 CALM      30.04S
MADISON        CLEAR     58  56  93 CALM      30.05R FOG
MIDDLETON      FAIR      56  56  97 CALM      30.05S
MONROE         CLEAR     61  57  88 W8        30.06S
JANESVILLE     CLEAR     59  55  88 CALM      30.05S
$$

WIZ051-052-058>065-066-070>072-011100-
SOUTHEAST WISCONSIN

CITY           SKY/WX    TMP DP  RH WIND       PRES   REMARKS
MILWAUKEE      CLEAR     65  57  75 W3        30.04S
WAUKESHA       CLEAR     55  54  94 CALM      30.06S
MILWAUKEE/TIMM CLEAR     61  55  82 CALM      30.05R
RACINE         CLEAR     64  57  78 W6        30.06R
BURLINGTON     CLEAR     55  54  95 S3        30.05S
KENOSHA        CLEAR     59  57  93 SW6       30.05S
FOND DU LAC    PTCLDY    62  57  83 SW7       30.04R
SHEBOYGAN      CLEAR     58  56  93 SW5       30.02S
WEST BEND      CLEAR     59  55  88 CALM      30.04S
JUNEAU         CLEAR     58  56  92 CALM      30.06R
$$

LSZ147-162-011100-
LAKE SUPERIOR

STATION/POSITION TIME  TEMP    WIND        PRES    WAVE
                       AIR SEA DIR/SP/G            HT/PER
                 (UTC) (F)     (DEG/KT/KT) (MB)    (FT/S)
W MID LAKE BUOY  0950   45 43   10/  4/  6 1016.5R   0
PORT WING        0900   56     150/  3/  4 1016.3R
SAXON HARBOR     0900          190/  3/  6 1015.9R
$$

LMZ867-665-643>646-011100-
LAKE MICHIGAN

STATION/POSITION TIME  TEMP    WIND        PRES    WAVE
                       AIR SEA DIR/SP/G            HT/PER
                 (UTC) (F)     (DEG/KT/KT) (MB)    (FT/S)
N MID LAKE BUOY  0950   57 54  180/  2/  2 1015.5R   1/ 3
NORTHPORT PIER   0900   59      CALM  /  2 1015.6S
SISTER BAY       0925   63        CALM       N/A
ALGOMA LAKESHORE 0921             CALM       N/A
KEWAUNEE LAKESHO 0900   59     310/  4/  5 1015.2R
SHEBOYGAN LAKESH 1000   67     260/  9/ 10 1016.5R
PORT WASHINGTON  0900   67     270/  6/  8 1016.9S
ATWATER BUOY     1000   67     240/  8     1017.8F
MILWAUKEE LAKESH 1000   68     270/  5/  6   N/A
S MID LAKE BUOY  0950   64 62  250/  6/  8 1017.2R   0
KENOSHA   LAKESH 1000   67     260/  8/ 10 1017.3R
$$

TC  - TEMPERATURE IN CELSIUS
VSB - VISIBILITY IN STATUTE MILES
WCI - WIND CHILL INDEX
HX  - HEAT INDEX



USA.gov is the U.S. government's official web portal to all federal, state and local government web resources and services.